This is the latest recevied weather packets stored in our database for station/object KM4NDN. If no packets are shown the sender has not sent any weather packets the latest 10 day(s).
| Time | Temp. | Humidity | Pressure | Rain* | Wind** | Luminosity | Snow |
|---|---|---|---|---|---|---|---|
| 1777985774 | 17.22° C | 65% | 1003.8 hPa | 0 mm | - | 324 W/m² | - |
| 1777985471 | 16.67° C | 67% | 1004.1 hPa | 0 mm | - | 331 W/m² | - |
| 1777985167 | 16.67° C | 67% | 1004 hPa | 0 mm | - | 276 W/m² | - |
| 1777984863 | 16.67° C | 68% | 1003.7 hPa | 0 mm | - | 147 W/m² | - |
| 1777984560 | 16.67° C | 67% | 1003.9 hPa | 0 mm | - | 189 W/m² | - |
| 1777984256 | 16.11° C | 68% | 1004 hPa | 0 mm | - | 196 W/m² | - |
| 1777983953 | 16.11° C | 67% | 1004 hPa | 0 mm | - | 138 W/m² | - |
| 1777983650 | 16.11° C | 67% | 1003.8 hPa | 0 mm | - | 145 W/m² | - |
| 1777983347 | 16.11° C | 67% | 1003.6 hPa | 0 mm | - | 119 W/m² | - |
| 1777983043 | 16.11° C | 68% | 1003.7 hPa | 0 mm | - | 111 W/m² | - |
| 1777982740 | 16.11° C | 67% | 1003.7 hPa | 0 mm | - | 97 W/m² | - |
| 1777982436 | 16.11° C | 67% | 1003.5 hPa | 0 mm | - | 85 W/m² | - |
| 1777982130 | 16.11° C | 67% | 1003.4 hPa | 0 mm | - | 76 W/m² | - |
| 1777981828 | 16.11° C | 67% | 1003.3 hPa | 0 mm | - | 58 W/m² | - |
| 1777981525 | 16.11° C | 66% | 1003.5 hPa | 0 mm | - | 46 W/m² | - |
| 1777981221 | 16.11° C | 66% | 1002.9 hPa | 0 mm | - | 36 W/m² | - |
| 1777980918 | 16.11° C | 66% | 1002.8 hPa | 0 mm | - | 25 W/m² | - |
| 1777980614 | 16.11° C | 67% | 1002.8 hPa | 0 mm | - | 20 W/m² | - |
| 1777980311 | 15.56° C | 67% | 1002.5 hPa | 0 mm | - | 19 W/m² | - |
| 1777980009 | 16.11° C | 67% | 1002.4 hPa | 0 mm | - | 20 W/m² | - |
| 1777979708 | 16.11° C | 67% | 1002.2 hPa | 0 mm | - | 20 W/m² | - |
| 1777979405 | 16.11° C | 66% | 1002.2 hPa | 0 mm | - | 19 W/m² | - |
| 1777979101 | 16.11° C | 66% | 1002.4 hPa | 0 mm | - | 17 W/m² | - |
| 1777978798 | 16.11° C | 66% | 1002.3 hPa | 0 mm | - | 12 W/m² | - |
| 1777978495 | 16.11° C | 65% | 1002.1 hPa | 0 mm | - | 9 W/m² | - |
* Rain latest hour (hover to see other rain measurements)
** Current wind speed in m/s (hover to see current wind gust speed)